User: anonymous   Login
Location: Unspecified
(0.0000°N, 0.0000°E)
Time: 15:52:51
(UTC+00:00)
Language:

SES 6 - Orbit

View from above orbital plane
View from above orbital plane
View from above satellite
View from above satellite

Ground track
Ground track

The orbit data is extracted from the following two-line orbital elements,

1 39172U 13026A   17050.31423321 -.00000271  00000-0  00000+0 0  9996
2 39172   0.0282  64.1945 0001937 274.4666 243.3743  1.00270713 13584
Epoch (UTC): 19 February 2017 07:32:29
Eccentricity: 0.0001937
inclination: 0.0282°
perigee height: 35778 km
apogee height: 35794 km
right ascension of ascending node: 64.1945°
argument of perigee: 274.4666°
revolutions per day: 1.00270713
mean anomaly at epoch: 243.3743°
orbit number at epoch: 1358

The dashed part of the orbit path shows where the satellite is in the earth's shadow,  

DLR